Location: Crocus Hill
(18.2167°N, 63.0667°W)
Time: 17:59:46
(UTC+00:00)

SL-4 R/B - Pass Details

Date: 26 January 2020
Orbit: 428 x 666 km, 51.6° (Epoch: 23 February)

Event Time Altitude Azimuth Distance (km) Brightness Sun altitude
Rises 00:16:14 0° 217° (SW) 2,985 6.4 -31.5°
Reaches altitude 10° 00:18:36 10° 216° (SW) 2,065 5.4 -32.0°
Enters shadow 00:20:32 24° 215° (SW) 1,340 4.3 -32.5°
